ED2YAA-3 Weather Reports


time (UTC)temp
F
wind
direction
speed
knots
gust
knots
rain 1hr
in
rain 24hr
in
rain mn
in
humidity
%
barometer
mb
20260510174942 65 45 0.0 0.0 0.00 0.00 0.00 59 988.0
20260510173530 65 96 0.0 0.0 0.00 0.00 0.00 62 988.0
20260510164942 65 68 0.0 0.0 0.00 0.00 0.00 67 987.9
20260510163530 65 68 0.0 0.0 0.00 0.00 0.00 65 987.6
20260510154943 67 338 0.0 0.0 0.00 0.00 0.00 63 987.3
20260510153530 66 338 0.0 0.0 0.00 0.00 0.00 64 987.2
20260510144942 65 338 0.0 0.0 0.00 0.00 0.00 64 988.0
20260510143528 65 338 0.0 0.0 0.00 0.00 0.00 62 988.3
20260510134943 64 158 0.0 0.0 0.00 0.00 0.00 64 989.4
20260510133530 63 158 0.0 0.0 0.00 0.00 0.00 67 989.5
20260510124943 62 152 0.0 0.0 0.00 0.00 0.00 62 990.6
20260510123528 64 0 0.0 0.0 0.00 0.00 0.00 56 990.3
20260510114942 74 180 0.0 0.0 0.00 0.00 0.00 43 988.0
20260510113528 75 180 0.0 0.0 0.00 0.00 0.00 41 988.0
20260510104943 74 90 0.0 0.0 0.00 0.00 0.00 40 988.2
20260510103528 75 126 0.0 0.0 0.00 0.00 0.00 40 988.4
20260510094941 89 101 0.0 0.0 0.00 0.00 0.00 32 988.7
20260510093528 87 112 0.0 0.0 0.00 0.00 0.00 33 988.9
20260510084942 83 112 0.0 0.0 0.00 0.00 0.00 38 989.4
20260510083528 81 131 0.0 0.0 0.00 0.00 0.00 40 989.3
20260510074941 74 158 0.0 0.0 0.00 0.00 0.00 51 989.2
20260510073528 71 94 0.0 0.0 0.00 0.00 0.00 54 989.2
20260510070309 74 45 0.0 0.0 0.00 0.00 0.00 56 989.0
20260510063528 73 45 0.0 0.0 0.00 0.00 0.00 60 988.6
20260510060309 67 45 0.0 0.0 0.00 0.00 0.00 73 988.3
20260510053528 54 68 0.0 0.0 0.00 0.00 0.00 85 988.2
20260510050308 54 68 0.0 0.0 0.00 0.00 0.00 86 987.8
20260510043527 55 68 0.0 0.0 0.00 0.00 0.00 86 987.7
20260510040308 55 68 0.0 0.0 0.00 0.00 0.00 87 987.7
20260510033527 55 68 0.0 0.0 0.00 0.00 0.00 87 987.6
20260510030309 55 0 0.0 0.0 0.00 0.00 0.00 87 987.3
20260510023527 56 0 0.0 0.0 0.00 0.00 0.00 87 987.8
20260510020308 56 0 0.0 0.0 0.00 0.00 0.00 87 987.5
20260510013526 56 0 0.0 0.0 0.00 0.00 0.00 87 987.6
20260510010309 56 0 0.0 0.0 0.00 0.00 0.00 86 988.1
20260510003527 57 0 0.0 0.0 0.00 0.00 0.00 85 988.0
20260510000307 57 0 0.0 0.0 0.00 0.00 0.00 86 988.1
20260509233528 57 0 0.0 0.0 0.00 0.00 0.00 86 988.4
20260509230308 57 0 0.0 0.0 0.00 0.00 0.00 86 988.2
20260509224923 57 0 0.0 0.0 0.00 0.00 0.00 86 988.2
20260509223528 57 0 0.0 0.0 0.00 0.00 0.00 85 988.3
20260509214924 59 0 0.0 0.0 0.00 0.00 0.00 84 987.8
20260509213527 59 0 0.0 0.0 0.00 0.00 0.00 84 987.8
20260509204924 59 0 0.0 0.0 0.00 0.00 0.00 83 987.8
20260509203526 59 0 0.0 0.0 0.00 0.00 0.00 83 987.6
20260509194923 60 315 0.0 0.0 0.00 0.00 0.00 81 987.1
20260509193528 60 270 0.0 0.0 0.00 0.00 0.00 80 987.1
20260509184924 61 315 0.0 0.0 0.00 0.00 0.00 76 987.1
20260509183526 62 315 0.0 0.0 0.00 0.00 0.00 75 987.1